EST,Max TemperatureF,Mean TemperatureF,Min TemperatureF,Max Dew PointF,MeanDew PointF,Min DewpointF,Max Humidity, Mean Humidity, Min Humidity, Max Sea Level PressureIn, Mean Sea Level PressureIn, Min Sea Level PressureIn, Max VisibilityMiles, Mean VisibilityMiles, Min VisibilityMiles, Max Wind SpeedMPH, Mean Wind SpeedMPH, Max Gust SpeedMPH,PrecipitationIn, CloudCover, Events, WindDirDegrees
2013-11-1,87,82,78,72,71,70,76,70,63,30.02,29.97,29.91,10,10,10,17,12,22,0.00,3,,149
2013-11-2,89,80,70,71,68,63,93,70,42,29.94,29.90,29.82,10,10,10,14,5,17,0.00,2,,277
2013-11-3,84,76,69,63,61,59,78,61,45,30.04,29.96,29.91,10,10,10,18,13,26,0.00,5,,4
2013-11-4,81,78,75,66,62,54,69,59,40,30.09,30.05,30.02,10,10,10,23,18,31,0.00,6,Rain,53
2013-11-5,82,78,75,73,69,64,94,75,56,30.10,30.05,30.03,10,8,2,24,18,31,0.18,8,Rain,77
2013-11-6,84,80,75,69,68,67,76,68,56,30.07,30.04,30.01,10,10,9,21,14,29,0.00,4,,67
2013-11-7,84,77,70,70,68,67,90,77,58,30.03,29.98,29.94,10,10,10,13,6,,0.00,2,,5
2013-11-8,84,78,71,74,70,66,94,82,53,30.04,30.00,29.95,10,8,1,23,8,30,0.30,7,Rain,29
2013-11-9,81,78,75,75,72,69,96,84,72,30.12,30.07,30.02,10,8,2,21,18,30,0.11,8,Rain,63
2013-11-10,82,80,78,72,69,66,79,70,62,30.13,30.08,30.06,10,10,10,17,15,25,0.00,6,,62
2013-11-11,82,80,77,70,67,65,74,66,60,30.12,30.08,30.06,10,10,10,16,10,20,0.00,2,,63
2013-11-12,82,76,71,68,67,65,87,68,56,30.09,30.04,29.99,10,10,10,12,7,,0.00,1,,30
2013-11-13,79,75,71,66,63,55,83,71,54,30.22,30.11,30.01,10,8,2,28,14,36,0.32,6,Rain,18
2013-11-14,75,72,70,61,56,52,64,56,51,30.25,30.19,30.14,10,10,10,22,18,32,0.00,7,,69
2013-11-15,82,78,73,70,64,58,88,64,54,30.15,30.09,30.04,10,10,2,21,15,25,0.04,7,Rain,92
2013-11-16,80,76,73,72,67,56,84,69,46,30.12,30.06,30.03,10,10,8,17,13,25,0.02,7,Rain,101
2013-11-17,84,81,78,72,69,67,78,70,62,30.09,30.05,30.02,10,10,10,15,12,21,0.00,5,,119
2013-11-18,82,78,73,72,70,68,89,78,60,30.03,29.99,29.94,10,10,6,8,4,,0.03,6,Rain,131
2013-11-19,84,78,73,73,70,68,90,83,63,29.96,29.92,29.87,10,10,9,10,5,,0.01,4,,308
2013-11-20,82,76,70,72,70,68,97,81,67,30.07,30.00,29.94,10,9,5,8,3,,0.04,3,Rain,85
2013-11-21,81,76,72,75,72,70,100,88,74,30.14,30.10,30.05,10,7,2,20,8,28,1.31,7,Rain,75
2013-11-22,81,77,73,72,70,68,94,78,67,30.16,30.11,30.08,10,8,2,21,16,28,0.20,7,Rain-Thunderstorm,69
2013-11-23,82,78,75,70,69,68,79,75,65,30.09,30.04,29.99,10,10,10,15,11,20,0.00,4,,64
2013-11-24,82,75,68,70,66,62,94,79,56,30.15,30.07,30.00,10,7,0,28,10,33,0.55,5,Fog-Rain,17
2013-11-25,77,74,71,72,65,58,94,76,59,30.21,30.15,30.11,10,9,3,23,20,32,0.03,8,Rain,74
2013-11-26,82,78,73,74,71,68,88,81,74,30.01,29.90,29.85,10,9,2,29,18,37,0.03,6,Rain,145
2013-11-27,78,69,59,75,65,51,96,81,50,30.13,29.91,29.81,10,7,2,20,11,28,0.99,4,Rain-Thunderstorm,253
2013-11-28,73,60,48,59,51,45,86,66,51,30.25,30.20,30.13,10,10,10,17,12,24,0.00,3,,9
2013-11-29,77,70,62,61,58,53,84,62,50,30.28,30.23,30.20,10,10,10,20,11,26,0.00,6,,34
2013-11-30,75,69,63,68,63,59,90,75,60,30.22,30.16,30.12,10,9,2,22,11,32,0.09,6,Rain,26